Wind_Speed
13 15 17 21 23 22 20 19 18 18 19 18 18 16 16 18 13 10 13 16 17 18 14 11 7 7 13 16 14 9 6 14 21 24 21 22 23 25 25 22 22 20 19 20 22 23 23 20 16 15 16 18 20 21 20 21 24 25 23 23 22 24 27 26 25 23 20 17 13 11 9 9 11 11 11 11 10 10 10 11 11 11 11 11 11 12
12 18 20 21 21 19 16 16 16 18 21 21 20 18 18 18 14 8 12 15 17 16 11 11 11 11 13 15 16 13 11 14 19 23 23 24 25 25 23 18 16 16 16 19 22 23 22 19 17 16 19 22 22 22 20 19 21 23 19 16 18 25 28 24 22 20 14 13 13 11 9 10 11 12 12 11 10 10 11 12 11 12 13 13 13 13
15 20 20 18 16 15 16 16 17 18 19 20 20 18 16 15 12 7 10 13 14 12 12 14 12 10 10 14 19 16 14 16 19 22 21 22 24 25 23 15 12 13 14 17 20 22 21 19 19 20 23 26 23 21 21 17 16 17 13 14 20 22 20 18 18 15 10 11 13 12 10 10 11 13 13 11 11 11 12 13 13 13 14 15 15 15
19 18 16 16 15 13 16 16 18 20 19 18 18 16 16 15 11 8 3 6 10 10 10 11 9 10 12 14 20 20 16 16 19 23 20 17 20 23 21 14 13 16 15 15 17 20 20 18 20 23 24 26 23 20 18 14 11 11 12 14 17 14 10 11 12 10 9 9 11 11 11 11 12 14 14 13 13 13 13 14 14 14 15 16 17 17
23 16 9 11 15 15 17 17 18 21 21 17 13 13 14 14 13 11 8 7 9 8 7 10 12 13 15 13 15 18 17 14 16 21 22 18 18 22 20 15 15 17 16 14 15 18 19 19 22 26 27 26 23 19 16 15 13 9 9 8 5 4 6 6 5 6 7 7 8 10 12 13 13 14 14 13 14 14 14 14 15 17 17 17 18 17
23 19 12 11 14 17 18 19 20 20 19 16 9 7 12 16 13 13 13 14 16 10 8 14 11 8 12 12 11 11 13 14 14 18 22 22 23 23 21 18 17 18 16 15 14 14 16 21 25 28 27 25 24 22 17 14 16 13 7 5 4 3 3 2 4 4 5 8 8 9 11 12 13 14 14 13 13 14 15 15 16 18 19 19 18 16
21 20 19 18 16 18 20 20 21 20 19 18 13 8 9 14 15 15 17 17 17 12 10 12 9 7 12 12 13 12 13 16 16 19 22 23 25 26 25 21 17 18 17 17 18 17 19 22 25 25 22 22 23 22 18 12 12 11 6 4 4 4 4 4 2 1 5 7 8 8 9 11 13 15 14 13 14 15 16 16 17 19 20 20 18 16
20 18 18 20 20 20 23 23 19 16 15 16 17 16 12 12 13 13 15 16 17 19 17 14 11 11 14 15 14 13 15 15 13 16 20 21 19 18 20 19 16 17 17 19 22 24 24 23 23 22 18 19 21 21 19 14 9 8 6 5 6 7 6 3 2 3 3 5 7 8 8 9 12 15 15 15 15 16 17 17 19 20 20 19 18 16
20 18 17 18 18 15 16 19 16 11 12 13 13 16 18 16 14 12 15 18 17 19 18 12 9 9 13 18 16 12 15 13 7 3 6 13 14 10 9 9 10 13 16 21 24 26 25 22 20 19 16 16 18 19 20 17 11 9 8 10 12 11 9 8 6 5 3 2 4 7 8 9 12 14 15 15 16 17 18 18 20 22 21 20 18 17
19 15 14 16 18 17 14 14 14 12 14 15 12 13 16 17 16 12 11 15 12 10 9 7 9 8 10 18 17 12 13 9 3 1 3 6 11 12 10 7 7 11 17 24 28 27 25 21 17 15 13 12 16 19 20 18 15 13 12 11 14 14 11 9 8 6 7 5 4 4 6 9 12 13 14 15 17 19 19 19 21 22 22 20 19 19
20 12 13 17 16 17 17 13 14 16 15 15 13 13 15 16 17 14 10 9 7 5 7 9 11 11 8 8 6 3 3 3 3 5 3 2 5 8 11 12 10 9 14 21 26 26 21 16 13 13 12 13 16 18 19 19 18 17 15 15 16 16 12 8 9 10 11 10 7 6 5 7 11 14 15 16 18 19 19 20 21 23 22 21 19 19
21 14 15 19 14 13 17 14 14 16 17 17 15 13 12 11 11 10 8 7 4 4 11 13 13 15 9 3 7 5 3 4 8 10 9 9 7 5 9 13 10 6 8 11 16 15 10 8 11 12 13 14 17 19 17 17 18 17 16 18 22 19 9 7 7 12 13 9 9 10 6 5 10 13 15 16 18 18 19 20 22 23 22 20 19 19
23 20 14 15 15 14 16 16 16 16 16 17 18 15 9 3 2 3 3 3 4 8 16 18 15 13 7 5 5 2 2 3 9 11 11 11 10 6 6 10 7 3 3 4 8 9 6 8 11 13 15 15 17 19 16 15 16 15 12 13 18 13 5 6 10 10 12 15 15 12 7 7 11 14 15 16 17 17 19 20 22 22 21 19 18 18
19 21 18 16 16 15 15 16 17 17 14 13 16 16 10 3 1 2 3 2 5 12 18 18 13 6 8 7 2 2 1 3 8 11 11 10 11 9 9 10 9 7 7 6 7 9 9 12 14 15 17 17 18 19 16 17 17 14 9 7 8 7 8 12 15 9 8 15 17 14 11 11 13 15 16 16 17 18 19 21 21 21 20 19 18 17
13 14 20 20 19 20 20 19 18 17 15 16 17 16 14 11 6 2 3 4 3 5 6 7 6 2 6 6 2 1 2 4 7 9 10 11 12 12 11 11 10 9 7 6 8 10 11 13 14 15 18 19 21 22 21 20 22 20 12 8 10 14 15 17 19 15 10 13 16 17 15 14 14 15 16 17 17 19 21 22 22 21 20 18 17 16
15 15 19 19 18 22 22 17 17 18 17 18 21 20 16 16 15 11 9 7 2 2 1 0 1 1 5 7 2 3 3 4 7 8 10 11 13 13 12 11 10 8 6 6 8 10 12 14 14 16 17 18 21 24 25 22 19 20 15 12 16 20 20 19 21 21 16 13 15 17 16 16 16 16 18 18 19 21 23 23 23 21 20 19 18 16
13 13 14 15 14 17 16 9 11 20 18 14 21 26 20 15 17 17 14 13 7 1 1 3 4 5 5 5 2 3 3 5 5 6 8 9 10 12 12 12 10 7 6 6 7 9 12 14 16 17 17 18 19 22 25 22 15 13 13 15 20 24 25 22 22 21 18 15 16 17 17 18 18 18 19 19 20 23 25 25 23 21 20 19 18 16
11 10 11 16 15 14 17 12 10 17 20 16 16 20 19 16 18 17 8 5 4 1 2 6 9 9 5 3 1 2 2 4 5 5 6 6 6 7 7 6 3 2 4 5 5 7 9 10 13 15 16 17 19 20 23 22 17 14 16 20 24 27 27 25 24 21 18 17 17 17 18 18 19 19 20 20 21 24 26 26 24 22 21 20 19 17
11 10 9 15 17 12 16 17 13 14 18 21 18 14 12 11 14 19 10 1 2 2 1 5 11 8 4 3 1 3 3 4 5 6 5 2 1 2 3 3 4 4 6 6 6 8 9 9 9 11 12 12 15 19 21 21 18 18 21 24 27 28 29 29 27 24 20 18 18 17 17 19 20 20 21 22 22 24 26 27 25 24 22 20 18 16
13 10 6 10 15 11 14 18 18 18 17 18 19 17 14 9 9 13 11 6 4 3 2 3 7 4 4 3 3 3 2 2 4 5 6 2 2 1 1 3 4 4 6 8 8 10 11 10 7 8 7 8 12 14 14 16 18 21 24 27 28 28 31 31 29 26 22 19 18 18 19 22 23 21 22 22 22 23 27 28 26 24 23 21 17 15
16 12 7 9 14 14 15 19 19 20 19 18 19 20 17 14 11 7 7 8 5 3 3 2 3 3 2 2 3 3 4 4 3 3 6 5 1 2 1 3 5 5 5 6 8 9 8 7 7 7 6 5 8 6 6 13 17 20 23 26 26 26 27 27 26 24 21 20 20 21 22 24 24 23 23 23 22 24 29 29 27 25 23 20 17 15
21 17 13 13 15 14 10 14 15 17 17 17 17 19 19 17 14 7 4 7 6 3 3 4 4 2 3 3 2 2 5 6 4 5 6 8 4 0 2 3 3 5 5 5 8 9 8 7 5 6 6 3 3 3 3 9 14 18 22 24 23 23 24 24 24 23 22 22 23 23 24 24 24 23 23 24 24 27 30 30 27 25 23 19 17 16
21 19 18 17 17 15 10 10 12 12 16 17 16 19 21 21 21 15 6 6 9 6 4 7 5 3 5 4 2 1 5 6 4 4 6 8 7 5 5 5 3 2 2 2 4 5 4 5 5 2 2 2 2 2 2 5 9 14 19 21 19 20 23 23 25 25 25 25 25 25 26 25 24 24 24 24 26 29 31 29 27 25 23 20 19 18
13 13 17 16 13 15 16 14 10 8 10 9 7 6 14 19 22 19 14 10 11 8 7 7 4 3 5 4 3 3 5 5 4 5 6 7 8 9 9 8 6 5 3 2 3 3 2 3 4 4 5 4 5 7 6 7 9 11 15 17 17 19 22 22 23 24 26 27 26 25 25 25 25 25 25 26 28 31 31 29 27 26 24 21 20 18
5 5 11 12 6 7 13 13 11 8 3 5 7 4 4 12 13 5 3 8 6 3 7 8 5 5 7 5 5 5 6 6 6 6 5 7 9 9 9 9 8 6 4 3 5 5 5 6 5 6 7 7 8 9 9 11 12 14 16 18 18 19 20 21 22 24 25 26 23 20 22 25 25 25 27 27 30 34 32 29 28 27 24 22 21 18
3 1 3 6 5 4 3 2 5 8 8 8 6 6 6 1 5 5 6 7 5 6 7 8 10 13 11 9 8 7 7 7 7 9 8 9 11 11 8 8 6 4 5 5 5 6 7 8 8 8 8 8 8 9 10 12 13 15 16 17 17 17 18 19 22 23 23 22 21 20 22 25 25 26 29 30 32 35 33 29 29 27 25 23 21 18
5 2 1 3 5 8 7 6 9 7 6 7 6 7 10 6 1 3 5 6 7 10 11 7 13 19 15 13 12 9 9 8 8 9 9 9 10 10 8 9 6 4 5 5 6 5 6 6 6 5 4 4 4 5 6 9 12 15 17 16 15 15 17 21 23 23 21 21 22 23 24 25 25 27 31 31 34 36 33 30 31 29 25 23 21 19
6 4 2 4 7 9 7 4 2 3 7 11 9 6 7 7 4 3 6 6 7 8 9 8 15 17 15 15 13 10 11 10 7 7 6 5 6 7 7 8 6 6 6 6 6 4 4 5 4 4 2 1 2 4 4 5 7 11 15 17 17 16 18 21 23 23 21 23 25 22 22 24 25 27 31 31 34 37 33 30 31 29 26 24 22 20
6 6 5 4 7 6 4 4 4 2 5 11 13 13 8 4 3 4 6 7 6 6 7 10 12 10 10 14 14 14 13 11 8 8 6 5 5 7 6 4 3 5 6 5 5 3 2 2 2 2 1 3 4 5 6 6 6 7 10 14 16 17 18 20 21 22 22 24 24 20 20 24 26 28 31 31 33 36 34 31 31 29 27 25 23 21
8 7 6 5 7 5 3 5 7 8 4 3 9 14 13 9 9 9 10 10 7 9 14 18 16 12 12 14 16 16 14 10 8 8 7 5 5 6 4 4 3 3 4 4 3 2 1 0 2 2 2 4 5 6 7 7 7 6 7 8 11 14 16 18 20 21 22 23 23 21 22 25 27 29 32 33 35 36 34 33 32 28 27 27 25 24
12 7 4 5 7 7 6 7 8 8 5 2 6 11 13 13 16 16 14 12 11 13 17 19 17 15 14 14 15 13 10 8 6 6 6 4 5 5 4 5 4 3 4 4 2 0 1 2 4 4 4 4 5 6 6 6 7 8 7 7 7 10 14 16 18 21 22 22 22 22 23 24 26 29 32 34 37 37 35 35 35 30 28 28 27 26
9 5 5 5 6 7 8 8 8 6 3 3 7 10 10 9 11 13 13 13 13 15 15 15 14 13 13 12 9 7 8 7 5 4 3 3 3 4 5 6 5 3 4 3 1 2 3 4 5 5 5 6 6 5 5 5 6 7 8 8 7 7 10 13 16 18 18 18 20 21 22 23 26 30 33 35 37 38 38 40 38 34 30 29 28 26
5 5 6 5 7 9 6 4 5 4 3 2 4 7 9 7 5 6 8 10 12 14 14 14 13 14 12 7 3 4 8 7 5 3 4 4 3 3 5 6 6 5 4 2 1 3 5 5 5 6 7 7 7 6 5 4 5 7 8 8 7 7 8 9 11 14 13 15 18 20 21 24 27 30 33 35 35 37 40 41 40 37 33 30 28 26
4 4 4 4 8 9 7 6 7 6 4 2 3 5 7 6 4 3 6 8 10 11 12 11 11 10 7 3 2 5 8 6 5 5 6 5 4 4 5 6 6 6 5 2 1 4 5 5 6 7 7 7 7 7 7 7 8 10 9 8 8 9 6 5 4 5 11 14 15 18 21 23 25 28 32 34 34 34 38 39 39 38 35 31 28 26
6 7 6 6 7 8 9 9 6 4 4 4 5 6 6 5 5 6 6 7 9 10 11 9 7 7 5 4 4 7 7 6 6 7 5 4 5 6 6 7 7 7 7 5 3 4 4 5 7 8 7 7 7 8 9 9 10 11 10 9 9 9 6 6 6 5 7 12 15 18 21 23 25 27 30 31 31 32 37 40 40 39 37 32 28 26
9 9 10 9 8 7 7 5 4 7 9 7 6 8 8 6 6 7 8 7 8 9 11 9 7 6 6 6 6 6 6 7 7 7 6 5 7 7 6 8 9 9 10 8 4 4 4 5 7 8 6 5 5 7 9 9 10 10 9 9 7 6 4 3 5 6 6 9 13 17 20 23 26 28 29 30 30 31 36 40 40 37 35 33 30 29
12 11 11 11 9 8 10 12 12 13 11 7 7 8 8 8 8 7 8 8 8 9 11 9 6 6 6 7 8 7 7 6 5 5 6 6 7 8 7 9 9 7 6 7 5 4 5 6 7 7 5 4 5 6 7 8 9 9 8 8 6 4 2 2 6 5 5 6 11 15 18 21 24 27 29 31 32 33 34 36 36 35 36 35 33 32
13 14 15 12 8 11 15 16 12 8 5 6 9 8 7 9 9 8 7 7 7 8 8 7 7 8 7 7 9 9 8 6 5 5 6 5 6 7 8 10 10 7 5 4 5 5 6 7 8 6 4 4 5 7 8 8 7 7 6 6 5 3 1 3 5 6 6 8 12 16 20 21 22 24 25 27 31 32 32 32 33 33 34 33 33 33
8 11 15 13 11 14 17 13 6 2 5 8 9 8 8 8 10 9 6 4 4 6 6 5 6 7 8 8 9 9 8 6 6 7 7 7 7 7 6 7 9 8 8 8 7 7 8 9 9 7 5 5 6 8 8 8 7 6 6 5 4 2 2 1 4 6 7 8 12 18 23 24 25 25 24 27 33 35 34 33 32 31 31 31 31 31
9 9 12 14 15 16 16 13 8 4 8 10 10 11 10 9 10 8 4 2 2 3 5 6 6 5 6 7 7 7 6 6 7 8 8 8 8 8 7 6 6 7 9 10 11 11 11 11 10 9 8 7 8 9 9 10 10 9 7 6 4 2 3 2 1 3 4 6 9 13 18 20 21 22 23 27 32 35 36 35 33 32 32 31 29 29
12 11 11 15 16 16 16 15 12 8 9 11 11 13 12 10 9 7 4 3 3 2 1 2 3 4 6 8 8 8 9 9 9 9 8 8 9 9 8 7 7 7 8 8 9 10 10 10 10 10 9 8 10 12 12 12 11 9 8 8 6 4 3 3 1 1 4 5 5 8 11 12 10 12 18 21 21 22 25 27 27 26 26 26 26 26
12 12 12 15 15 16 18 19 14 8 8 10 12 13 11 9 9 8 6 5 4 5 6 5 3 2 1 3 5 7 8 9 9 9 9 9 10 11 10 8 8 8 9 9 9 9 9 9 10 9 9 9 11 12 12 11 9 6 6 6 5 4 3 2 2 2 4 5 6 7 8 9 8 7 10 12 11 13 15 18 18 18 18 19 21 20
12 11 14 16 16 15 16 15 9 5 6 10 11 10 9 8 9 9 6 5 6 6 7 7 6 4 5 5 3 3 3 3 3 4 5 6 6 8 9 10 9 9 9 9 9 8 9 10 10 9 8 8 9 10 10 11 10 8 7 6 7 6 3 3 4 5 6 7 8 10 9 9 9 8 7 8 7 8 10 11 12 13 13 15 17 18
13 14 16 16 14 11 11 10 6 7 9 10 10 10 10 11 10 10 8 7 7 5 4 5 4 3 4 5 5 5 6 6 4 2 1 1 1 2 4 6 8 9 9 10 9 9 9 10 10 9 8 7 8 10 10 11 11 11 11 10 11 10 6 7 9 12 13 14 15 15 13 11 9 8 9 8 6 6 8 11 12 13 14 16 18 19
12 11 10 11 13 14 16 16 14 14 15 13 11 12 14 14 13 11 9 8 7 6 5 4 3 2 2 4 4 4 4 5 5 4 3 2 2 2 1 2 4 5 7 8 8 8 8 8 8 7 6 7 9 11 12 11 12 14 14 13 13 12 10 11 13 16 18 20 21 20 18 16 14 12 12 11 9 9 10 11 11 11 12 13 15 16
13 9 7 12 19 21 21 18 16 16 17 16 15 15 16 15 14 11 9 7 6 5 4 4 4 4 4 5 5 4 4 4 4 5 5 4 4 5 4 3 3 3 4 5 5 5 5 6 5 4 5 8 10 12 14 13 12 14 15 14 14 15 16 16 17 17 17 18 20 20 20 20 19 18 17 16 14 13 12 11 11 10 9 9 9 10
14 10 11 16 19 18 17 14 12 15 16 15 16 16 15 15 14 11 9 8 6 4 3 3 3 4 5 6 7 7 6 4 4 4 5 5 6 7 8 7 6 5 4 4 3 4 4 4 4 4 5 8 11 12 13 13 12 13 13 14 15 16 17 18 20 20 19 19 19 19 21 22 21 20 19 18 16 15 13 11 10 9 8 7 7 7
9 8 10 14 16 16 16 13 11 14 16 14 14 15 14 13 13 12 10 8 7 6 5 4 4 5 5 7 7 8 8 7 6 5 5 5 5 5 6 7 6 6 6 5 4 4 4 4 5 6 7 9 10 10 11 11 11 11 12 13 12 12 11 13 15 18 20 21 21 21 20 20 19 18 17 16 15 14 12 11 10 9 8 7 7 8
8 9 12 17 20 19 17 13 11 14 16 15 13 13 13 12 11 10 10 9 8 8 7 7 6 7 7 8 8 7 7 7 7 6 6 5 4 4 4 4 4 4 4 4 4 3 3 3 4 5 7 9 10 10 10 10 10 11 12 12 12 11 10 9 10 11 13 16 18 18 18 17 17 15 14 13 12 11 10 9 9 8 9 9 9 10
10 14 14 17 20 19 16 13 9 10 14 16 15 14 13 11 9 9 9 9 9 10 11 11 10 10 10 10 9 8 7 6 6 6 6 6 6 5 5 4 4 3 3 3 2 2 3 3 3 3 4 6 8 8 8 7 7 8 9 9 10 10 10 10 10 10 9 9 11 12 13 13 13 13 11 11 10 9 8 8 8 9 10 10 11 12
10 12 10 11 17 18 14 10 6 6 12 16 15 14 14 12 10 11 12 12 12 13 13 13 12 12 11 10 8 7 5 4 4 4 4 5 5 5 4 4 4 4 4 3 3 3 4 4 4 4 4 4 5 5 5 5 5 5 5 6 6 6 7 8 9 9 10 10 10 10 10 10 11 11 11 10 10 9 9 9 9 10 10 11 12 12
Wind_Direction
203 211 215 216 212 208 211 210 214 229 235 246 254 257 272 273 275 256 205 183 190 197 200 209 215 244 262 268 276 287 228 217 234 241 247 255 257 261 265 272 279 278 268 252 247 246 245 249 255 263 266 262 261 262 262 260 259 259 244 229 229 224 212 207 209 206 194 183 190 198 199 211 222 227 226 226 235 241 227 218 213 205 206 210 200 193
203 217 221 217 214 208 209 214 222 235 241 250 265 282 286 276 281 255 197 185 189 188 191 214 237 256 257 258 264 277 274 265 264 257 252 250 249 254 259 270 285 285 274 260 251 248 254 262 261 265 272 270 265 265 265 259 257 255 233 211 220 220 209 202 202 203 192 180 188 195 200 216 221 222 224 227 235 240 230 220 213 201 197 200 196 191
214 225 226 215 213 211 210 216 230 241 250 257 265 281 276 265 296 295 190 185 196 201 220 237 253 266 261 253 257 272 279 280 283 276 268 257 252 257 264 275 297 296 287 271 254 249 257 263 264 269 274 272 268 265 267 266 262 263 251 220 214 212 203 197 200 194 181 185 192 195 204 215 221 222 223 226 234 237 228 220 218 208 195 192 192 191
219 231 231 214 205 211 219 222 232 240 249 260 262 266 261 257 290 308 207 187 209 209 210 221 235 261 272 263 257 261 270 282 286 285 284 266 263 273 270 278 305 302 293 280 261 255 257 258 261 265 263 264 263 262 274 292 294 277 259 223 203 206 202 195 198 178 160 181 198 209 216 219 222 222 223 225 230 232 224 218 220 213 198 191 193 192
225 242 243 214 202 207 223 231 239 246 247 248 251 250 242 249 276 283 277 291 270 239 229 250 256 268 279 284 274 261 257 268 273 277 277 265 274 281 266 267 297 300 292 282 269 261 257 251 255 259 259 265 274 284 308 346 353 320 270 241 212 239 227 187 157 130 144 177 204 226 230 230 229 225 226 226 225 225 219 216 217 208 197 193 193 191
229 241 244 218 200 203 218 229 234 242 247 242 244 253 233 237 262 273 272 301 304 281 276 279 270 277 287 295 298 270 248 254 251 255 265 269 276 276 264 266 284 291 285 277 273 267 253 248 254 260 267 277 285 294 312 348 355 344 324 310 322 304 294 27 64 113 161 187 207 227 234 236 233 228 229 225 218 218 217 214 208 199 193 193 192 188
230 235 237 230 222 216 217 226 229 230 238 240 240 257 253 242 252 267 275 296 301 286 286 274 247 275 301 300 296 281 270 272 262 252 256 265 273 274 268 266 273 280 275 271 271 261 247 245 253 261 272 284 286 287 294 312 330 331 333 329 314 295 308 355 24 215 206 198 201 213 229 238 232 224 222 221 216 214 217 215 204 197 193 192 191 189
234 234 231 233 236 226 218 221 222 217 225 240 244 239 241 246 245 252 265 274 276 272 274 270 260 282 296 295 294 290 287 292 291 272 255 249 258 269 268 266 274 281 279 277 268 252 242 244 254 263 271 282 284 284 285 290 302 303 291 280 284 291 294 305 319 276 239 203 204 212 223 228 223 217 215 218 217 214 217 214 205 202 197 192 191 189
227 232 228 232 232 219 213 215 212 211 221 240 253 236 230 242 241 238 241 243 255 263 261 267 287 293 290 289 292 292 285 292 328 335 225 219 226 240 264 281 288 276 265 257 245 238 237 239 250 260 267 276 282 283 282 283 282 276 271 269 272 275 281 296 287 242 204 179 219 227 225 216 212 213 214 215 214 213 215 211 206 202 196 193 192 191
227 234 223 221 222 217 221 223 220 229 233 237 247 239 241 253 255 256 242 230 247 268 261 274 276 267 285 290 290 288 282 290 338 39 135 186 214 233 252 258 247 240 239 232 224 224 231 236 243 250 255 267 275 278 281 282 275 263 257 262 272 269 268 298 310 264 247 256 266 265 243 225 215 216 221 220 214 213 215 211 205 199 194 193 192 194
235 233 217 217 220 218 222 226 227 228 228 234 238 237 251 260 256 261 261 247 260 279 280 291 270 250 265 299 314 311 275 301 303 266 264 246 212 225 249 257 254 237 237 237 229 222 220 230 248 252 251 256 265 274 280 280 274 265 255 256 268 268 267 301 335 326 293 256 253 290 285 247 229 220 223 224 218 216 216 212 204 196 193 193 195 196
237 236 230 223 215 215 221 225 226 224 223 228 227 226 244 248 240 253 267 266 276 279 276 278 267 255 248 69 68 95 167 259 279 277 276 278 278 256 255 268 267 226 228 250 250 241 223 234 261 266 267 270 272 275 274 270 268 265 262 271 273 265 272 308 311 314 301 252 259 292 296 270 243 224 219 219 217 218 216 211 203 195 193 194 196 197
237 243 242 219 214 222 217 209 215 227 230 223 215 217 236 242 216 259 275 251 230 249 259 258 261 260 221 119 82 125 158 234 262 275 274 272 284 299 290 283 279 248 259 292 279 266 246 247 258 265 273 278 277 274 268 256 255 258 264 286 283 261 255 262 240 262 267 244 258 274 259 258 246 223 213 209 212 216 214 209 202 196 196 196 198 199
232 239 236 222 222 220 201 196 212 227 226 206 203 214 220 169 101 252 220 226 234 239 243 241 250 245 157 129 102 192 208 247 254 271 275 273 279 291 304 299 299 309 316 322 291 265 252 254 258 265 273 274 268 260 245 226 222 230 246 286 279 214 198 221 216 219 232 225 237 245 238 245 238 220 210 204 208 213 211 207 200 197 199 198 199 201
231 231 224 220 224 222 218 219 219 221 224 212 206 217 221 207 205 230 204 195 198 222 235 224 237 230 139 119 63 229 242 262 267 275 275 276 276 281 298 305 307 314 316 317 293 268 258 255 258 268 271 272 271 260 244 226 211 204 215 256 238 199 197 211 208 206 202 199 217 232 237 237 229 217 208 204 208 209 209 205 199 198 199 197 200 201
240 237 222 217 227 228 225 223 216 220 235 228 209 210 223 218 214 232 251 249 206 76 359 152 93 90 127 125 169 263 275 272 274 277 270 269 269 271 284 296 304 311 310 306 293 278 273 268 267 269 265 264 271 268 261 251 218 195 202 236 231 212 207 210 211 215 213 201 210 224 231 232 226 214 205 206 207 205 206 203 200 199 197 197 198 197
237 244 221 210 225 225 219 232 235 225 229 226 205 204 218 227 224 235 251 253 254 61 208 206 128 128 135 124 176 244 293 308 298 293 284 279 276 273 272 275 284 302 305 295 297 296 290 284 276 270 267 263 262 264 265 258 233 206 217 235 231 220 212 211 216 221 222 216 211 214 222 227 224 211 205 208 207 204 203 200 199 200 198 197 195 193
234 250 222 215 229 225 223 245 250 225 226 235 224 213 215 219 228 240 250 241 231 122 205 206 159 145 140 118 184 250 316 342 331 313 300 288 279 269 255 247 258 343 342 317 317 323 317 307 292 281 276 265 254 251 247 239 230 223 226 232 230 222 214 214 219 224 229 226 213 209 217 223 222 213 206 208 207 205 204 200 199 200 198 196 194 193
234 244 229 228 238 225 214 222 224 226 236 242 245 241 222 208 221 234 236 176 153 149 248 182 152 134 92 87 33 354 27 10 333 319 317 284 207 206 193 154 111 69 40 28 22 23 18 357 321 301 290 273 264 254 233 217 212 213 219 224 222 216 213 217 224 232 239 232 214 210 217 221 220 214 209 208 208 208 206 201 199 200 198 195 193 192
222 227 232 226 230 226 207 210 221 230 234 239 245 251 247 238 235 231 221 203 174 173 227 147 125 86 40 57 13 352 6 348 323 325 333 306 162 107 142 121 101 78 61 55 52 52 44 25 355 332 314 299 299 281 239 218 215 217 219 220 217 211 212 218 226 232 235 230 218 215 219 219 218 214 210 209 208 207 206 201 199 199 197 194 192 190
216 214 230 215 221 240 221 208 223 230 222 223 236 249 253 245 245 245 221 218 200 147 171 134 79 41 57 79 359 321 284 290 282 291 311 297 248 96 141 134 111 108 107 92 82 85 74 49 33 26 20 350 337 324 226 215 217 217 217 218 216 213 215 222 226 225 224 223 221 220 219 219 218 214 211 210 207 204 202 200 200 198 195 192 189 186
214 209 221 216 225 254 235 204 222 231 221 217 226 241 249 247 248 246 200 210 206 162 142 129 117 84 89 96 40 319 270 269 255 243 268 284 295 27 230 222 153 137 143 132 115 113 105 89 76 45 36 30 358 24 155 197 209 214 218 220 218 218 222 224 221 220 221 221 222 222 218 217 218 216 212 210 207 203 201 200 199 196 192 190 187 183
206 210 218 218 228 247 235 214 229 233 227 233 242 239 233 238 244 241 232 201 186 173 124 114 120 112 100 104 79 314 254 250 246 237 253 272 284 290 277 264 245 223 223 174 140 126 106 110 124 107 69 124 184 179 156 196 219 230 233 230 221 219 226 224 218 219 220 219 220 219 214 214 216 216 213 210 209 206 202 200 199 196 191 190 190 184
187 201 204 203 215 229 231 242 257 243 222 239 280 247 209 216 229 241 254 226 186 169 149 124 96 108 130 149 177 196 222 229 226 229 246 261 273 285 273 249 247 261 271 246 203 208 215 178 169 186 196 197 205 206 203 212 227 238 245 244 233 225 227 226 223 223 222 221 221 217 211 212 213 213 211 210 210 208 204 201 200 196 190 191 193 187
165 176 184 180 181 220 239 259 271 269 289 37 26 14 187 201 202 202 215 188 157 126 156 144 111 143 161 175 188 202 225 228 220 221 243 262 271 284 269 242 240 235 207 192 199 203 207 206 207 210 212 219 224 223 222 223 227 230 234 238 237 232 230 228 228 228 226 228 228 219 211 212 212 210 209 209 209 206 203 201 200 196 192 192 192 188
177 67 144 157 135 139 191 343 349 316 336 15 4 355 18 178 182 113 108 132 92 74 115 123 131 148 161 181 194 214 234 240 245 248 262 273 271 272 259 240 240 216 180 176 184 189 193 202 213 220 228 238 241 244 244 243 245 244 240 238 233 234 239 238 238 236 232 234 232 218 210 212 213 209 206 206 207 205 202 201 201 197 193 192 191 188
218 233 74 109 107 110 116 68 26 357 3 21 357 359 27 40 105 152 127 112 102 92 78 94 142 144 153 183 203 223 235 246 260 260 268 280 279 273 244 218 212 187 162 158 160 167 174 182 194 202 216 238 250 263 260 252 253 251 250 248 237 232 238 241 243 242 238 236 227 212 207 212 214 212 206 201 202 203 202 201 201 199 195 193 191 190
229 207 140 103 105 105 115 115 27 18 62 58 46 37 32 30 43 151 149 131 136 114 81 111 149 147 162 189 202 215 228 241 249 251 258 256 258 259 233 213 195 164 150 145 144 145 149 153 149 139 121 51 351 336 320 289 268 255 252 250 242 235 236 238 243 244 241 236 226 213 210 212 213 213 207 199 199 202 202 201 201 200 197 195 195 196
224 199 177 155 136 118 121 163 204 237 78 79 78 76 70 59 72 136 153 149 173 181 156 159 162 158 180 202 207 209 221 237 235 233 229 207 238 259 240 223 202 166 154 144 143 147 148 141 125 101 44 355 349 345 341 337 319 283 267 260 249 242 239 242 246 245 242 237 227 215 211 211 212 213 205 197 198 201 201 202 202 201 199 198 199 201
209 195 186 176 154 153 189 188 208 232 230 121 94 87 90 108 121 138 152 154 168 179 175 177 177 171 184 210 216 215 228 238 224 228 230 209 237 266 243 220 231 199 164 151 148 163 199 6 352 347 343 337 336 336 340 348 348 334 315 290 264 249 243 245 248 245 244 242 231 217 212 211 211 209 202 197 198 199 200 203 204 204 203 202 203 204
206 189 176 173 151 162 191 181 184 210 227 186 134 117 109 115 126 135 141 145 150 158 171 182 181 175 187 209 217 219 230 234 226 244 262 242 232 248 244 235 240 203 164 161 149 109 336 356 359 355 353 339 324 325 333 347 351 343 333 321 295 265 250 247 250 248 244 239 228 216 213 213 208 202 199 198 198 198 202 205 204 206 208 208 209 210
204 174 152 168 155 158 178 179 177 191 185 132 132 123 108 107 124 131 134 140 147 156 172 186 187 194 211 221 225 214 199 210 236 242 253 262 241 236 233 231 228 198 176 167 117 15 350 356 357 350 345 336 330 327 323 330 342 340 335 333 321 288 265 258 259 256 242 228 222 216 212 212 207 201 201 202 198 197 203 206 205 207 211 213 214 214
178 163 153 158 147 148 161 174 171 166 144 118 113 105 94 85 97 129 149 156 154 158 173 185 193 210 225 232 243 190 175 197 241 212 197 233 236 213 216 221 225 227 222 211 19 350 349 354 347 341 340 340 343 346 341 345 358 353 344 341 339 326 300 274 263 256 237 218 219 219 213 208 204 202 205 204 199 198 203 208 208 209 212 215 216 217
160 174 172 154 143 148 151 141 135 127 118 132 131 116 108 102 112 155 177 178 171 165 171 184 200 216 232 248 200 174 178 199 213 192 200 223 212 194 203 212 225 236 235 231 324 332 342 346 340 343 348 348 353 2 7 10 9 1 355 354 359 356 327 283 270 256 232 218 211 210 209 205 201 206 210 206 201 200 204 208 211 211 213 216 218 219
169 171 175 164 147 149 151 142 127 105 115 134 132 130 128 128 156 180 185 190 193 182 173 180 203 223 244 248 205 190 196 204 200 199 206 206 207 215 214 215 224 227 222 225 269 307 320 330 334 342 351 355 3 10 10 8 1 355 356 359 6 12 349 309 320 325 255 221 204 200 204 204 204 209 209 203 201 204 205 208 212 213 213 216 220 223
187 179 176 168 153 151 152 142 126 122 125 129 138 151 158 156 166 183 187 190 200 200 194 195 212 237 246 234 213 207 211 206 207 221 229 218 221 228 222 225 234 226 212 214 245 280 279 306 325 331 337 347 7 15 8 359 352 351 356 2 9 25 16 298 266 283 277 232 209 203 203 204 208 210 208 205 208 212 212 213 215 215 215 217 221 225
191 186 180 173 169 161 132 112 120 130 126 132 148 156 171 173 170 180 184 183 195 213 219 218 222 238 237 218 210 212 212 212 218 234 235 226 226 226 219 230 251 257 223 212 228 254 261 285 306 310 314 329 351 4 359 350 347 347 351 360 8 22 33 184 194 219 253 232 220 219 213 208 210 211 211 212 216 218 216 214 215 217 217 217 220 223
195 190 187 180 174 167 140 118 122 141 133 146 150 141 153 173 179 183 175 173 194 219 231 229 225 226 219 208 212 216 218 227 238 238 234 226 224 227 221 223 244 277 291 255 238 237 249 275 291 290 287 310 328 340 342 338 339 344 349 356 7 18 322 219 200 202 208 196 192 198 205 212 217 218 218 216 212 208 206 208 213 217 216 214 215 217
186 191 195 181 159 160 151 126 113 149 141 150 152 136 136 157 171 174 158 142 185 216 232 237 233 229 221 214 219 223 224 231 237 241 244 233 229 247 251 227 229 247 264 269 268 262 263 277 288 284 275 291 311 324 332 330 327 337 355 360 2 35 69 236 229 222 221 211 191 181 182 190 199 205 215 220 213 205 202 206 212 214 213 211 209 210
142 161 183 173 154 154 149 121 93 109 142 155 157 141 133 143 158 162 146 103 148 204 228 230 231 232 227 225 232 239 242 243 245 248 245 231 229 247 263 258 247 241 239 245 252 255 259 269 278 281 280 292 310 319 325 330 330 334 344 349 347 11 64 72 198 214 209 217 215 201 190 186 183 182 188 196 199 197 198 202 205 207 210 211 210 212
127 129 147 155 151 153 146 121 100 107 136 150 154 145 138 138 142 145 148 147 136 105 133 203 215 223 224 225 233 246 255 256 255 253 247 242 246 253 259 262 264 258 250 247 246 244 249 259 268 277 285 297 309 313 314 322 328 327 324 330 340 351 14 45 42 220 193 185 197 207 206 205 201 191 184 183 187 193 198 203 206 210 215 218 218 219
113 110 121 130 133 138 133 117 100 97 125 142 149 147 146 144 137 135 141 142 111 73 65 70 85 128 189 221 226 238 247 249 247 244 244 247 253 259 264 265 261 256 252 250 248 246 248 251 253 261 274 290 301 305 306 308 305 292 293 309 322 333 341 350 338 272 218 195 177 169 173 178 181 190 196 198 206 214 217 219 220 219 217 213 209 205
120 119 118 117 119 121 114 105 92 83 122 146 149 145 148 155 148 137 123 102 91 80 68 67 75 77 56 40 27 359 326 300 272 253 252 254 251 252 257 258 257 254 249 246 246 246 248 246 240 245 262 281 293 296 296 296 282 248 228 247 270 278 272 252 245 229 213 202 180 163 157 159 158 160 170 177 184 199 211 213 205 195 188 181 177 173
125 127 126 124 126 119 98 93 98 97 108 132 146 142 139 141 133 118 98 88 91 94 87 82 77 61 44 31 16 13 13 3 356 349 322 317 309 272 260 258 256 252 249 249 245 242 245 244 238 240 255 273 285 286 284 282 270 244 227 237 256 260 247 227 216 205 197 189 173 160 154 155 156 154 155 159 166 180 185 179 175 177 178 176 177 175
116 125 130 129 127 121 109 108 111 103 99 108 119 123 122 118 115 111 105 100 101 101 102 98 86 69 51 25 8 13 20 5 352 351 358 13 20 7 335 290 270 258 251 250 243 236 238 239 236 238 250 264 274 280 278 271 260 246 238 240 245 242 233 225 212 198 190 181 170 163 163 163 162 159 157 158 159 163 166 163 160 167 172 175 181 181
103 115 131 126 119 110 103 102 106 102 98 99 101 105 111 113 116 120 117 112 112 104 95 87 78 72 62 44 33 31 26 358 332 327 330 334 343 348 348 339 311 280 261 255 256 251 244 238 234 239 265 275 275 272 267 260 251 242 235 229 224 219 215 213 206 196 190 184 176 172 169 165 163 162 159 155 153 153 157 157 155 160 165 168 175 178
106 119 128 126 120 110 102 103 108 104 99 99 99 100 107 113 116 119 118 116 115 110 102 102 91 76 67 60 52 43 36 20 347 328 319 313 316 322 324 324 324 319 301 278 274 279 272 260 249 246 261 268 266 260 253 244 237 234 228 221 215 209 205 204 201 196 195 197 196 188 177 167 165 165 162 160 162 164 165 164 164 170 176 177 183 191
115 133 134 128 125 122 117 118 122 114 106 103 103 102 103 107 109 112 114 109 102 98 94 88 89 89 85 78 65 49 41 33 18 5 353 339 329 319 310 304 304 313 314 301 285 279 278 273 265 258 256 254 251 251 250 242 234 231 226 220 218 215 208 205 203 199 198 200 201 196 185 175 172 172 168 166 169 169 167 168 172 177 182 188 201 209
105 135 143 132 122 117 116 120 131 131 120 112 109 108 105 106 110 112 111 105 96 92 86 77 78 86 82 75 69 58 46 37 30 28 27 24 20 12 350 320 299 296 298 292 288 285 279 278 273 265 257 250 244 240 240 240 237 233 227 222 223 225 221 214 208 205 201 199 198 196 191 185 182 180 175 174 178 179 178 182 188 196 204 211 219 225
104 125 136 131 116 108 109 113 122 139 132 123 121 119 112 111 111 105 101 98 90 83 77 71 70 75 76 72 70 67 62 60 57 52 49 47 39 29 23 8 346 324 298 287 296 307 303 302 294 271 253 241 234 227 223 223 222 222 222 219 218 222 222 218 212 209 207 206 206 203 198 193 190 188 185 185 189 195 201 208 214 221 226 230 235 239
101 105 110 118 115 113 116 113 111 136 129 120 119 117 109 102 97 90 85 82 78 74 71 67 66 69 72 71 72 76 77 75 68 55 48 49 40 26 21 13 357 340 322 312 312 317 315 305 290 282 275 259 242 227 220 221 217 211 211 209 206 210 215 216 214 209 206 205 206 208 208 204 199 197 195 195 199 205 210 218 224 227 232 236 238 240
Height
3090 3091 3091 3091 3092 3094 3096 3098 3099 3099 3100 3101 3103 3105 3105 3105 3104 3103 3103 3104 3104 3106 3107 3108 3109 3108 3108 3108 3109 3112 3112 3111 3111 3110 3112 3113 3113 3113 3114 3115 3116 3117 3118 3118 3118 3118 3117 3118 3119 3119 3118 3118 3119 3119 3119 3118 3117 3118 3120 3123 3124 3125 3126 3128 3129 3130 3132 3135 3139 3142 3144 3145 3146 3146 3147 3147 3148 3148 3149 3150 3150 3151 3152 3152 3154 3156
3089 3089 3089 3089 3092 3094 3095 3098 3099 3099 3099 3101 3102 3104 3103 3102 3103 3104 3103 3103 3103 3105 3106 3107 3108 3108 3108 3108 3107 3110 3112 3112 3111 3110 3111 3111 3111 3111 3111 3113 3114 3116 3117 3117 3117 3117 3116 3116 3116 3117 3117 3117 3118 3118 3118 3118 3117 3118 3120 3124 3125 3123 3123 3127 3129 3132 3135 3137 3140 3142 3144 3145 3146 3146 3146 3147 3148 3148 3148 3148 3149 3150 3151 3152 3153 3155
3088 3087 3087 3089 3091 3094 3095 3096 3098 3098 3099 3100 3101 3102 3101 3100 3101 3102 3103 3103 3103 3104 3105 3105 3107 3107 3107 3107 3106 3107 3109 3110 3109 3108 3109 3110 3110 3109 3110 3112 3112 3114 3115 3116 3116 3117 3116 3116 3116 3117 3116 3116 3117 3116 3116 3118 3118 3120 3123 3124 3124 3123 3124 3127 3130 3133 3136 3139 3140 3142 3143 3144 3146 3146 3146 3147 3147 3147 3147 3147 3147 3148 3149 3150 3152 3153
3086 3084 3086 3089 3091 3093 3094 3095 3096 3097 3098 3099 3100 3101 3100 3100 3101 3102 3102 3103 3103 3103 3103 3104 3105 3105 3106 3107 3106 3106 3106 3107 3108 3106 3106 3108 3109 3108 3109 3110 3110 3111 3113 3114 3115 3116 3117 3117 3116 3115 3113 3113 3114 3115 3117 3121 3122 3123 3124 3123 3123 3125 3127 3129 3131 3133 3136 3139 3141 3141 3141 3142 3144 3144 3145 3146 3146 3145 3145 3146 3146 3146 3147 3148 3150 3151
3083 3082 3086 3088 3090 3091 3093 3094 3094 3095 3097 3098 3099 3099 3099 3100 3100 3100 3101 3103 3103 3102 3102 3102 3103 3103 3104 3105 3104 3105 3106 3106 3108 3107 3105 3106 3107 3107 3108 3108 3108 3110 3111 3112 3113 3115 3116 3115 3112 3111 3112 3114 3117 3118 3122 3125 3125 3126 3126 3124 3125 3128 3129 3131 3132 3134 3136 3138 3140 3140 3140 3141 3141 3142 3143 3144 3144 3144 3144 3144 3144 3144 3145 3146 3148 3149
3081 3082 3086 3088 3088 3090 3091 3092 3093 3094 3095 3096 3097 3098 3099 3099 3099 3098 3099 3101 3102 3101 3101 3101 3101 3101 3103 3103 3103 3104 3105 3106 3107 3107 3105 3104 3105 3105 3106 3107 3107 3109 3110 3111 3113 3114 3114 3112 3109 3110 3114 3117 3119 3121 3123 3124 3125 3126 3127 3127 3128 3129 3129 3130 3131 3132 3134 3136 3137 3138 3138 3138 3139 3140 3141 3142 3142 3142 3143 3143 3143 3143 3144 3145 3146 3148
3081 3082 3085 3086 3087 3088 3089 3090 3091 3093 3094 3094 3096 3098 3099 3100 3099 3099 3099 3100 3100 3100 3101 3101 3101 3101 3101 3102 3102 3102 3104 3104 3105 3107 3106 3105 3103 3102 3103 3104 3106 3107 3109 3110 3112 3112 3110 3109 3109 3111 3115 3117 3118 3119 3121 3122 3124 3125 3127 3128 3129 3129 3129 3130 3131 3132 3133 3134 3135 3136 3136 3136 3136 3137 3138 3139 3140 3140 3141 3142 3142 3142 3143 3144 3145 3146
3079 3081 3083 3084 3085 3086 3087 3089 3090 3091 3093 3093 3096 3098 3099 3100 3100 3100 3100 3100 3099 3099 3100 3101 3102 3101 3099 3100 3102 3102 3103 3104 3104 3104 3105 3105 3102 3099 3099 3101 3104 3106 3108 3109 3110 3108 3106 3107 3109 3112 3114 3115 3116 3118 3119 3121 3123 3123 3125 3127 3128 3129 3129 3130 3131 3131 3132 3133 3133 3134 3133 3133 3134 3135 3136 3137 3138 3139 3140 3141 3141 3141 3142 3142 3143 3145
3078 3079 3081 3082 3083 3084 3086 3087 3088 3090 3092 3093 3095 3096 3097 3099 3100 3101 3100 3099 3099 3099 3098 3099 3102 3101 3098 3100 3102 3101 3102 3103 3101 3101 3101 3099 3099 3098 3098 3101 3103 3104 3106 3106 3107 3105 3105 3107 3109 3111 3113 3113 3115 3116 3117 3119 3121 3122 3123 3125 3128 3128 3128 3129 3129 3130 3132 3132 3132 3132 3131 3131 3132 3133 3134 3135 3136 3137 3138 3139 3139 3140 3140 3141 3142 3144
3077 3078 3080 3081 3081 3082 3084 3085 3088 3089 3091 3093 3094 3095 3095 3097 3098 3099 3099 3098 3098 3098 3097 3099 3101 3101 3099 3100 3101 3100 3101 3100 3098 3098 3099 3098 3099 3099 3099 3100 3100 3100 3101 3102 3104 3104 3106 3109 3109 3110 3112 3113 3114 3114 3115 3117 3119 3120 3121 3123 3126 3127 3127 3127 3128 3130 3131 3131 3132 3131 3130 3130 3131 3132 3133 3134 3135 3136 3137 3137 3138 3138 3139 3140 3141 3143
3074 3077 3079 3079 3080 3081 3082 3084 3087 3089 3091 3092 3093 3094 3094 3095 3096 3097 3096 3096 3096 3095 3096 3098 3101 3101 3101 3101 3100 3099 3099 3098 3096 3097 3098 3100 3100 3098 3097 3098 3098 3098 3101 3102 3104 3104 3106 3109 3110 3111 3112 3113 3113 3113 3114 3115 3116 3118 3119 3120 3124 3126 3127 3127 3128 3129 3129 3130 3131 3130 3129 3129 3130 3131 3132 3133 3134 3134 3135 3135 3136 3137 3138 3139 3140 3142
3072 3075 3076 3077 3079 3079 3081 3083 3086 3087 3089 3090 3091 3093 3094 3093 3094 3094 3094 3095 3095 3094 3095 3098 3100 3101 3101 3100 3100 3099 3098 3097 3096 3097 3098 3100 3099 3096 3097 3098 3098 3100 3103 3104 3106 3107 3107 3109 3111 3111 3111 3112 3113 3113 3114 3114 3114 3116 3117 3119 3121 3125 3127 3126 3126 3127 3127 3129 3130 3130 3129 3128 3129 3129 3130 3132 3133 3134 3135 3135 3135 3136 3137 3138 3140 3141
3070 3072 3074 3076 3078 3078 3078 3081 3084 3085 3086 3088 3089 3091 3092 3092 3093 3094 3094 3094 3094 3094 3096 3098 3099 3099 3099 3099 3099 3098 3097 3096 3096 3097 3098 3099 3098 3096 3097 3098 3098 3100 3103 3105 3106 3108 3108 3109 3110 3110 3110 3111 3112 3113 3114 3114 3114 3114 3115 3118 3120 3122 3125 3125 3124 3125 3125 3127 3129 3129 3128 3128 3128 3128 3129 3131 3132 3133 3134 3134 3135 3136 3137 3138 3139 3140
3070 3071 3073 3074 3076 3077 3077 3079 3082 3083 3084 3086 3087 3089 3090 3091 3094 3096 3095 3095 3094 3094 3095 3097 3097 3097 3097 3098 3098 3098 3097 3097 3096 3097 3098 3098 3097 3096 3096 3097 3097 3098 3100 3103 3105 3106 3107 3108 3109 3108 3108 3107 3108 3110 3111 3111 3112 3113 3113 3116 3119 3120 3121 3121 3121 3122 3122 3123 3126 3128 3128 3128 3128 3128 3129 3130 3131 3132 3134 3134 3135 3136 3137 3138 3139 3140
3069 3069 3070 3072 3073 3075 3076 3078 3080 3082 3083 3085 3086 3088 3089 3089 3092 3094 3092 3093 3093 3092 3093 3094 3095 3096 3096 3097 3098 3097 3098 3098 3097 3098 3098 3097 3097 3097 3096 3096 3096 3096 3098 3101 3103 3104 3106 3106 3107 3106 3106 3104 3104 3106 3108 3106 3106 3109 3111 3113 3116 3117 3117 3117 3118 3119 3120 3121 3123 3126 3127 3127 3127 3127 3128 3129 3130 3131 3133 3134 3135 3136 3137 3138 3138 3139
3069 3068 3069 3071 3071 3072 3075 3077 3080 3081 3082 3083 3085 3086 3087 3087 3090 3090 3089 3090 3090 3091 3092 3093 3094 3094 3095 3096 3096 3097 3097 3098 3098 3099 3098 3097 3097 3097 3096 3095 3095 3095 3097 3099 3100 3102 3102 3103 3104 3104 3104 3103 3101 3103 3105 3106 3105 3107 3109 3111 3113 3115 3114 3114 3116 3117 3118 3118 3120 3122 3125 3126 3126 3126 3127 3128 3129 3130 3132 3133 3135 3136 3137 3137 3138 3139
3067 3067 3068 3070 3070 3071 3073 3075 3078 3079 3079 3080 3082 3082 3084 3086 3088 3088 3088 3088 3088 3091 3092 3091 3093 3094 3094 3095 3095 3096 3096 3097 3098 3098 3098 3097 3096 3096 3096 3095 3094 3094 3095 3097 3098 3099 3099 3100 3100 3101 3102 3102 3101 3100 3102 3105 3106 3107 3109 3111 3112 3113 3113 3113 3114 3116 3117 3117 3117 3119 3122 3124 3125 3125 3126 3127 3128 3129 3130 3132 3134 3135 3136 3137 3137 3138
3066 3065 3066 3068 3069 3071 3072 3074 3076 3077 3077 3079 3080 3081 3082 3085 3086 3087 3087 3086 3088 3090 3090 3089 3091 3093 3094 3095 3095 3096 3096 3097 3097 3098 3097 3096 3095 3094 3094 3094 3094 3094 3095 3095 3096 3096 3097 3098 3098 3099 3100 3099 3099 3098 3098 3100 3102 3104 3107 3110 3111 3112 3113 3112 3113 3115 3115 3115 3117 3118 3121 3123 3123 3124 3125 3126 3127 3128 3130 3131 3133 3134 3135 3136 3137 3138
3065 3065 3065 3067 3068 3070 3072 3073 3074 3075 3077 3078 3079 3081 3082 3083 3084 3085 3085 3086 3087 3089 3089 3088 3089 3092 3094 3095 3096 3096 3096 3096 3096 3096 3097 3096 3095 3094 3093 3094 3094 3094 3095 3095 3095 3096 3097 3097 3097 3096 3097 3097 3097 3096 3094 3095 3096 3099 3102 3106 3107 3109 3111 3111 3112 3113 3114 3115 3117 3118 3120 3121 3121 3122 3123 3124 3126 3127 3129 3131 3132 3134 3135 3136 3137 3138
3064 3064 3065 3066 3067 3069 3071 3072 3073 3074 3075 3077 3077 3079 3080 3081 3082 3082 3082 3083 3085 3087 3088 3088 3090 3093 3094 3094 3095 3095 3095 3095 3095 3096 3097 3096 3096 3095 3094 3094 3095 3095 3095 3095 3095 3095 3096 3097 3098 3096 3097 3097 3096 3093 3092 3093 3095 3097 3100 3103 3104 3106 3108 3110 3112 3113 3114 3116 3118 3118 3118 3119 3119 3121 3122 3123 3124 3126 3128 3130 3132 3133 3135 3136 3137 3138
3063 3064 3064 3065 3066 3067 3068 3069 3071 3073 3074 3075 3076 3077 3078 3079 3081 3081 3081 3081 3082 3084 3085 3087 3092 3095 3094 3094 3095 3095 3095 3095 3095 3096 3097 3096 3096 3096 3095 3095 3095 3095 3095 3094 3094 3093 3094 3097 3098 3097 3097 3098 3096 3095 3095 3096 3097 3099 3100 3102 3103 3106 3109 3112 3112 3113 3114 3116 3116 3116 3116 3117 3118 3119 3120 3121 3123 3125 3127 3129 3131 3133 3135 3136 3137 3138
3061 3061 3063 3064 3064 3065 3066 3068 3070 3072 3073 3074 3075 3076 3077 3078 3079 3079 3079 3079 3080 3082 3083 3085 3092 3096 3095 3095 3096 3095 3095 3095 3095 3096 3096 3096 3097 3096 3096 3095 3095 3094 3094 3094 3094 3093 3094 3096 3096 3096 3096 3096 3097 3098 3099 3100 3101 3102 3102 3102 3104 3106 3109 3111 3111 3111 3112 3113 3113 3113 3114 3116 3117 3118 3119 3120 3122 3124 3126 3128 3130 3132 3134 3136 3137 3137
3057 3059 3061 3062 3063 3064 3065 3067 3070 3071 3072 3074 3075 3075 3075 3076 3077 3076 3077 3077 3078 3081 3082 3084 3089 3094 3094 3095 3096 3096 3095 3095 3094 3096 3096 3096 3096 3096 3096 3096 3095 3095 3094 3095 3095 3095 3095 3096 3095 3096 3096 3095 3096 3097 3098 3100 3102 3103 3103 3103 3104 3105 3107 3108 3108 3108 3108 3108 3108 3108 3110 3113 3115 3116 3118 3119 3121 3122 3124 3127 3129 3132 3134 3135 3136 3137
3055 3058 3059 3061 3063 3064 3064 3065 3067 3069 3071 3071 3072 3071 3071 3072 3073 3073 3074 3075 3077 3080 3080 3082 3088 3092 3093 3095 3096 3095 3095 3094 3094 3095 3096 3095 3095 3095 3095 3095 3095 3095 3095 3094 3094 3094 3095 3095 3095 3096 3096 3095 3095 3095 3096 3097 3099 3101 3102 3102 3103 3104 3105 3105 3105 3105 3104 3103 3104 3104 3108 3111 3112 3114 3116 3117 3119 3121 3123 3126 3129 3131 3133 3134 3135 3136
3055 3057 3058 3060 3062 3064 3064 3065 3066 3067 3067 3068 3069 3069 3069 3070 3070 3072 3073 3074 3077 3079 3078 3081 3087 3091 3093 3094 3094 3094 3094 3093 3094 3095 3095 3095 3094 3094 3094 3094 3094 3095 3095 3094 3094 3093 3094 3094 3095 3095 3095 3095 3095 3095 3095 3096 3097 3099 3100 3101 3102 3103 3103 3103 3102 3101 3100 3100 3102 3104 3105 3108 3110 3112 3114 3115 3117 3118 3121 3125 3128 3130 3132 3133 3134 3134
3055 3057 3057 3058 3060 3063 3066 3067 3067 3067 3066 3067 3069 3069 3070 3069 3069 3072 3074 3075 3077 3079 3079 3081 3086 3090 3092 3094 3093 3093 3093 3094 3094 3095 3095 3095 3094 3093 3094 3094 3095 3095 3095 3094 3093 3093 3093 3094 3094 3094 3094 3094 3094 3094 3094 3094 3095 3096 3097 3099 3101 3101 3100 3099 3098 3096 3096 3098 3100 3100 3101 3104 3107 3109 3110 3112 3114 3117 3120 3124 3127 3129 3130 3131 3132 3134
3055 3057 3057 3057 3059 3062 3065 3068 3069 3068 3066 3068 3069 3069 3069 3070 3070 3071 3075 3077 3078 3079 3081 3083 3085 3088 3091 3092 3092 3092 3093 3094 3095 3095 3094 3095 3094 3093 3094 3094 3095 3095 3095 3094 3094 3093 3093 3093 3094 3094 3094 3094 3093 3093 3093 3093 3093 3094 3094 3095 3098 3098 3096 3095 3093 3093 3093 3094 3094 3095 3096 3101 3104 3106 3107 3109 3111 3115 3119 3122 3125 3127 3129 3130 3131 3133
3055 3058 3058 3058 3060 3062 3064 3067 3068 3067 3067 3068 3070 3069 3069 3069 3070 3072 3074 3077 3079 3079 3082 3085 3085 3086 3089 3090 3091 3091 3091 3092 3094 3094 3094 3094 3094 3093 3093 3094 3095 3095 3094 3094 3093 3093 3093 3093 3093 3094 3094 3093 3093 3093 3092 3092 3092 3092 3091 3092 3093 3094 3093 3091 3091 3091 3092 3091 3091 3092 3094 3098 3101 3102 3105 3107 3109 3113 3117 3120 3123 3125 3127 3128 3130 3132
3056 3058 3059 3059 3060 3063 3064 3066 3067 3067 3067 3068 3069 3070 3070 3070 3071 3073 3074 3077 3078 3078 3082 3085 3085 3084 3086 3088 3089 3089 3090 3091 3093 3093 3093 3094 3093 3093 3093 3093 3094 3094 3093 3093 3093 3093 3093 3093 3093 3093 3093 3093 3092 3092 3091 3090 3090 3089 3089 3089 3089 3090 3090 3089 3088 3090 3090 3089 3090 3091 3093 3096 3098 3100 3103 3105 3107 3112 3115 3118 3121 3123 3125 3127 3128 3130
3055 3057 3059 3059 3060 3062 3064 3065 3065 3065 3066 3067 3069 3070 3071 3072 3072 3073 3074 3076 3077 3078 3080 3082 3082 3082 3084 3085 3087 3088 3089 3090 3092 3092 3092 3092 3093 3092 3092 3092 3093 3093 3093 3092 3092 3092 3092 3092 3092 3092 3092 3092 3091 3091 3090 3089 3088 3087 3086 3086 3086 3086 3086 3086 3086 3087 3088 3088 3090 3091 3091 3093 3096 3099 3101 3103 3105 3110 3114 3116 3118 3121 3123 3125 3125 3126
3054 3056 3058 3059 3060 3062 3064 3064 3064 3065 3066 3068 3070 3071 3072 3073 3073 3073 3074 3076 3077 3079 3080 3081 3082 3082 3083 3084 3086 3088 3089 3090 3090 3091 3091 3091 3092 3091 3091 3092 3092 3092 3092 3091 3091 3091 3091 3091 3090 3091 3091 3091 3090 3089 3089 3088 3087 3086 3085 3084 3084 3083 3083 3083 3083 3084 3086 3086 3087 3088 3090 3092 3094 3097 3100 3101 3104 3109 3112 3113 3116 3118 3120 3121 3122 3124
3054 3056 3057 3058 3059 3063 3065 3065 3065 3065 3066 3068 3070 3071 3072 3074 3074 3074 3075 3076 3077 3079 3080 3081 3082 3081 3082 3084 3085 3087 3088 3089 3089 3090 3090 3091 3091 3091 3091 3091 3091 3091 3091 3091 3091 3091 3090 3090 3089 3089 3090 3089 3089 3088 3088 3087 3086 3085 3084 3083 3082 3081 3081 3081 3081 3082 3083 3084 3085 3087 3089 3091 3093 3096 3098 3099 3102 3106 3108 3110 3113 3115 3117 3119 3121 3123
3054 3056 3057 3058 3059 3062 3064 3064 3064 3065 3066 3069 3071 3071 3072 3074 3074 3075 3076 3077 3078 3079 3079 3080 3080 3080 3082 3083 3085 3086 3087 3088 3088 3089 3090 3090 3090 3090 3091 3091 3091 3091 3091 3091 3090 3090 3089 3089 3089 3089 3088 3088 3088 3087 3087 3086 3086 3085 3084 3083 3082 3080 3079 3080 3080 3080 3082 3083 3084 3086 3088 3089 3092 3094 3096 3098 3101 3103 3105 3108 3111 3113 3115 3117 3120 3122
3055 3056 3057 3058 3059 3061 3062 3062 3063 3065 3069 3071 3072 3072 3073 3074 3075 3076 3076 3077 3078 3078 3079 3080 3080 3080 3082 3083 3084 3085 3086 3087 3088 3088 3089 3089 3089 3090 3090 3090 3091 3091 3090 3090 3090 3090 3089 3089 3088 3088 3088 3087 3087 3086 3086 3086 3085 3085 3084 3082 3081 3080 3080 3080 3080 3081 3081 3082 3083 3085 3086 3088 3091 3093 3094 3097 3100 3102 3103 3106 3109 3111 3113 3116 3118 3120
3054 3055 3056 3058 3059 3060 3061 3061 3064 3068 3071 3072 3072 3073 3073 3074 3075 3076 3076 3077 3078 3078 3079 3079 3080 3080 3081 3082 3083 3084 3085 3086 3087 3087 3088 3088 3089 3089 3089 3090 3090 3090 3090 3090 3090 3090 3089 3089 3088 3088 3088 3087 3087 3086 3086 3086 3085 3085 3084 3083 3082 3081 3080 3080 3080 3080 3081 3081 3082 3084 3086 3088 3090 3092 3093 3096 3098 3100 3102 3105 3107 3109 3112 3114 3116 3118
3054 3055 3056 3057 3058 3059 3060 3061 3064 3069 3072 3072 3072 3073 3074 3074 3075 3076 3076 3077 3077 3078 3079 3079 3080 3080 3080 3081 3082 3083 3084 3084 3085 3086 3087 3088 3088 3088 3089 3089 3089 3088 3088 3089 3089 3090 3089 3089 3088 3088 3088 3087 3087 3087 3086 3086 3086 3085 3084 3083 3083 3082 3082 3081 3081 3081 3081 3081 3082 3084 3085 3087 3089 3091 3093 3095 3097 3099 3100 3103 3105 3108 3110 3112 3114 3115
3053 3054 3055 3056 3057 3058 3059 3062 3065 3069 3071 3072 3073 3073 3073 3074 3075 3075 3076 3077 3077 3077 3078 3078 3079 3079 3080 3080 3081 3082 3082 3083 3084 3085 3086 3087 3087 3088 3088 3088 3088 3086 3086 3087 3088 3089 3089 3089 3088 3088 3087 3087 3088 3087 3087 3087 3086 3086 3085 3084 3084 3083 3083 3083 3083 3082 3081 3081 3082 3084 3085 3087 3089 3090 3092 3094 3096 3097 3098 3100 3103 3105 3107 3108 3110 3112
3051 3052 3053 3054 3056 3056 3058 3062 3066 3068 3070 3071 3072 3072 3073 3074 3074 3075 3076 3076 3077 3077 3077 3077 3078 3078 3079 3080 3080 3081 3081 3082 3083 3085 3085 3086 3087 3087 3087 3087 3087 3086 3086 3086 3087 3088 3089 3089 3088 3088 3087 3088 3088 3088 3087 3087 3087 3086 3086 3085 3084 3084 3083 3083 3083 3083 3083 3082 3083 3083 3084 3086 3088 3089 3090 3091 3092 3094 3096 3098 3100 3103 3104 3105 3106 3109
3050 3051 3052 3053 3055 3056 3056 3060 3064 3066 3068 3070 3070 3071 3072 3073 3074 3075 3075 3076 3076 3076 3076 3076 3077 3077 3078 3079 3080 3080 3081 3082 3083 3084 3085 3085 3086 3086 3086 3086 3086 3086 3086 3086 3086 3087 3088 3088 3088 3088 3088 3087 3088 3088 3087 3087 3087 3087 3086 3086 3085 3085 3084 3084 3084 3083 3083 3084 3084 3084 3084 3085 3086 3087 3088 3089 3090 3091 3094 3096 3098 3100 3101 3102 3103 3105
3048 3050 3051 3052 3054 3055 3056 3058 3062 3065 3067 3069 3070 3070 3071 3072 3073 3074 3075 3076 3076 3076 3076 3076 3076 3077 3078 3079 3079 3080 3080 3081 3082 3083 3084 3084 3085 3085 3085 3085 3085 3085 3085 3085 3085 3086 3087 3087 3087 3087 3087 3087 3087 3087 3087 3087 3087 3086 3086 3087 3086 3085 3085 3085 3084 3084 3083 3083 3084 3084 3084 3085 3085 3085 3086 3087 3088 3090 3091 3092 3093 3095 3097 3098 3100 3102
3048 3049 3051 3052 3053 3055 3055 3058 3062 3065 3066 3067 3069 3070 3070 3072 3073 3074 3075 3076 3076 3076 3076 3076 3077 3078 3078 3079 3079 3080 3080 3081 3082 3082 3083 3083 3084 3084 3084 3084 3084 3084 3084 3084 3084 3084 3085 3085 3086 3086 3086 3086 3086 3086 3086 3086 3086 3086 3086 3087 3086 3086 3085 3085 3085 3084 3084 3084 3084 3084 3084 3085 3085 3086 3086 3086 3087 3088 3089 3090 3091 3093 3095 3097 3098 3100
3049 3051 3052 3053 3054 3056 3056 3058 3062 3065 3066 3067 3068 3069 3070 3071 3072 3073 3074 3075 3076 3076 3076 3077 3077 3078 3078 3079 3079 3080 3080 3080 3081 3081 3082 3082 3083 3083 3083 3083 3083 3083 3083 3083 3083 3083 3083 3084 3084 3085 3085 3086 3086 3086 3086 3086 3086 3086 3086 3086 3086 3086 3085 3085 3085 3085 3084 3084 3083 3083 3083 3084 3084 3085 3085 3086 3087 3088 3089 3090 3092 3093 3094 3095 3096 3098
3049 3051 3053 3054 3055 3057 3058 3060 3063 3066 3066 3067 3068 3069 3070 3071 3072 3073 3074 3075 3076 3076 3076 3077 3077 3078 3079 3079 3079 3079 3080 3080 3080 3080 3080 3081 3081 3082 3082 3082 3083 3082 3082 3082 3082 3082 3082 3083 3083 3083 3084 3084 3085 3085 3085 3086 3086 3086 3086 3086 3086 3086 3085 3084 3084 3084 3084 3084 3083 3083 3083 3083 3083 3084 3084 3085 3086 3087 3088 3089 3091 3092 3093 3094 3095 3097
3050 3051 3053 3054 3056 3057 3059 3062 3065 3067 3067 3067 3067 3068 3069 3071 3072 3073 3074 3075 3076 3076 3077 3077 3078 3079 3079 3080 3080 3080 3080 3080 3080 3080 3080 3080 3080 3080 3081 3081 3081 3081 3081 3081 3081 3081 3081 3081 3081 3082 3082 3083 3084 3084 3085 3085 3086 3086 3085 3085 3085 3085 3085 3084 3084 3083 3083 3083 3083 3083 3083 3084 3085 3085 3086 3086 3087 3088 3089 3090 3091 3092 3093 3094 3095 3096
3051 3053 3053 3054 3056 3057 3059 3063 3065 3066 3067 3067 3068 3068 3069 3071 3072 3074 3075 3076 3076 3076 3077 3077 3078 3078 3079 3080 3080 3080 3080 3080 3080 3080 3080 3080 3080 3080 3080 3080 3080 3080 3080 3080 3080 3080 3080 3080 3080 3080 3080 3081 3082 3083 3084 3084 3084 3085 3085 3084 3084 3084 3084 3084 3084 3083 3083 3083 3082 3083 3083 3084 3085 3086 3087 3088 3089 3090 3091 3091 3092 3093 3094 3095 3096 3097
3053 3054 3054 3055 3057 3059 3061 3064 3066 3066 3067 3068 3068 3069 3070 3071 3073 3074 3075 3076 3076 3076 3076 3077 3077 3078 3078 3079 3079 3079 3079 3079 3079 3079 3079 3079 3080 3080 3080 3080 3080 3080 3080 3080 3079 3079 3079 3079 3079 3079 3079 3080 3081 3082 3082 3083 3083 3083 3083 3083 3083 3083 3083 3083 3083 3084 3084 3084 3083 3083 3083 3083 3084 3085 3087 3088 3089 3090 3090 3091 3092 3093 3094 3096 3097 3098
3055 3055 3056 3056 3058 3060 3063 3066 3067 3067 3068 3069 3069 3070 3071 3071 3073 3074 3075 3075 3075 3075 3076 3076 3076 3077 3077 3078 3078 3078 3078 3078 3078 3078 3079 3079 3079 3079 3080 3080 3080 3080 3079 3079 3079 3079 3079 3078 3078 3078 3079 3079 3080 3081 3081 3081 3081 3082 3082 3082 3082 3082 3082 3082 3082 3082 3083 3084 3084 3083 3083 3083 3083 3084 3085 3086 3087 3088 3089 3091 3092 3093 3094 3095 3096 3096
3055 3056 3057 3058 3059 3060 3064 3067 3068 3068 3069 3070 3070 3071 3072 3072 3073 3074 3074 3075 3075 3075 3075 3075 3075 3076 3077 3077 3078 3078 3078 3078 3078 3078 3078 3078 3078 3079 3079 3079 3079 3079 3079 3079 3078 3078 3078 3078 3077 3077 3078 3078 3079 3079 3080 3080 3080 3080 3080 3081 3081 3081 3081 3082 3082 3082 3082 3082 3082 3082 3082 3082 3082 3083 3084 3085 3086 3088 3089 3090 3091 3092 3093 3094 3095 3096
3055 3056 3059 3059 3059 3061 3064 3067 3069 3069 3069 3070 3071 3072 3073 3073 3074 3074 3075 3075 3075 3075 3075 3075 3076 3076 3076 3077 3078 3078 3078 3078 3078 3078 3078 3078 3078 3078 3078 3078 3078 3078 3079 3079 3078 3078 3077 3077 3077 3077 3077 3077 3078 3078 3078 3079 3079 3079 3079 3079 3080 3080 3080 3080 3081 3081 3081 3081 3082 3082 3082 3082 3082 3083 3084 3085 3086 3087 3088 3089 3090 3091 3092 3093 3094 3094
3057 3057 3060 3060 3060 3062 3065 3067 3069 3069 3069 3070 3072 3073 3073 3074 3075 3075 3075 3075 3075 3076 3076 3076 3076 3077 3077 3078 3078 3079 3079 3079 3079 3079 3079 3079 3079 3078 3078 3078 3078 3078 3078 3078 3078 3078 3077 3077 3077 3077 3077 3077 3077 3077 3077 3078 3078 3078 3078 3078 3078 3078 3079 3079 3079 3079 3080 3080 3081 3081 3082 3082 3082 3082 3083 3084 3085 3086 3087 3088 3089 3090 3090 3091 3092 3092
3059 3059 3061 3061 3060 3062 3065 3067 3068 3069 3069 3070 3072 3073 3073 3074 3075 3075 3075 3075 3076 3076 3077 3077 3078 3078 3078 3079 3079 3079 3079 3079 3080 3080 3080 3080 3079 3079 3079 3078 3078 3078 3077 3077 3077 3077 3077 3077 3077 3077 3077 3077 3077 3077 3077 3077 3077 3077 3077 3077 3077 3077 3078 3078 3078 3078 3079 3079 3080 3080 3081 3081 3081 3082 3082 3083 3084 3085 3086 3087 3087 3088 3089 3089 3090 3090